カタログに戻る

SAL-E

運用中アマチュア無線SSO
NORAD 68458·PAYLOAD·🇺🇸 United States

打ち上げ Mar 30, 2026 から Vandenberg Space Force Base

Loading…

次のパス (今後24時間)

TLE

最新Source: AMSAT

元期: Sep 14, 2026, 03:41 UTC

1 68458U 26067AU  26257.15375359  .00006927  00000-0  33524-3 0  9996
2 68458  97.4575 214.1450 0007477 115.2102 244.9909 15.18870070 25432

AllMySatでSAL-Eをリアルタイム追跡

Download on the App Store